UR7D-12 Weather Reports


Display with metric or nautical units.
time (UTC)temp
F
wind
direction
speed
MPH
gust
MPH
rain 1hr
in
rain 24hr
in
rain mn
in
humidity
%
barometer
mb
20260507023837 58 74 7.0 12.0 0.00 0.00 0.00 73 986.3
20260507023336 58 89 6.0 10.0 0.00 0.00 0.00 73 986.3
20260507022836 58 93 6.0 11.0 0.00 0.00 0.00 73 986.3
20260507022336 58 75 6.0 10.0 0.00 0.00 0.00 72 986.4
20260507021835 58 105 7.0 9.0 0.00 0.00 0.00 72 986.3
20260507021335 58 102 7.0 10.0 0.00 0.00 0.00 72 986.3
20260507020835 58 98 6.0 10.0 0.00 0.00 0.00 72 986.3
20260507020335 59 93 6.0 11.0 0.00 0.00 0.00 71 986.2
20260507015834 59 105 6.0 8.0 0.00 0.00 0.00 70 986.1
20260507015334 59 99 6.0 8.0 0.00 0.00 0.00 70 986.2
20260507014834 59 89 7.0 9.0 0.00 0.00 0.00 70 986.1
20260507014333 60 88 7.0 9.0 0.00 0.00 0.00 69 986.1
20260507013833 60 98 7.0 9.0 0.00 0.00 0.00 69 986.1
20260507013333 60 98 8.0 9.0 0.00 0.00 0.00 69 986.1
20260507012833 60 96 8.0 13.0 0.00 0.00 0.00 68 986.0
20260507012332 60 101 7.0 11.0 0.00 0.00 0.00 69 985.9
20260507011832 60 100 7.0 10.0 0.00 0.00 0.00 68 985.9
20260507011332 60 88 8.0 11.0 0.00 0.00 0.00 68 985.9
20260507010831 60 91 8.0 12.0 0.00 0.00 0.00 68 985.9
20260507010332 60 98 8.0 10.0 0.00 0.00 0.00 68 985.9
20260507005831 60 96 8.0 11.0 0.00 0.00 0.00 68 985.9
20260507005331 60 90 8.0 10.0 0.00 0.00 0.00 68 985.9
20260507004832 60 90 8.0 12.0 0.00 0.00 0.00 69 985.8
20260507004330 60 89 8.0 12.0 0.00 0.00 0.00 69 985.8
20260507003830 60 100 8.0 10.0 0.00 0.00 0.00 68 985.8
20260507003330 61 92 8.0 13.0 0.00 0.00 0.00 68 985.8
20260507002829 61 102 8.0 10.0 0.00 0.00 0.00 68 985.8
20260507002329 61 88 8.0 12.0 0.00 0.00 0.00 68 985.8
20260507001829 61 101 8.0 11.0 0.00 0.00 0.00 68 985.9
20260507001328 61 103 8.0 11.0 0.00 0.00 0.00 68 985.9
20260507000828 61 103 8.0 10.0 0.00 0.00 0.00 68 985.9
20260507000328 61 120 8.0 11.0 0.00 0.00 0.00 67 986.0
20260506235827 61 96 7.0 10.0 0.00 0.00 0.00 67 985.9
20260506235327 61 111 7.0 9.0 0.00 0.00 0.00 67 986.1
20260506234827 61 110 7.0 9.0 0.00 0.00 0.00 67 986.0
20260506234327 61 103 8.0 11.0 0.00 0.00 0.00 67 986.1
20260506233826 61 108 7.0 11.0 0.00 0.00 0.00 67 986.1
20260506233326 61 93 6.0 9.0 0.00 0.00 0.00 67 986.2
20260506232826 61 102 5.0 7.0 0.00 0.00 0.00 67 986.2
20260506232326 61 115 5.0 7.0 0.00 0.00 0.00 67 986.2
20260506231825 61 103 5.0 9.0 0.00 0.00 0.00 67 986.1
20260506231325 61 103 5.0 9.0 0.00 0.00 0.00 68 986.1
20260506230825 60 111 4.0 7.0 0.00 0.00 0.00 68 986.0
20260506230324 60 157 5.0 6.0 0.00 0.00 0.00 68 986.1
20260506225824 61 106 6.0 7.0 0.00 0.00 0.00 68 986.0
20260506225324 61 123 6.0 9.0 0.00 0.00 0.00 68 986.1
20260506224824 61 114 6.0 8.0 0.00 0.00 0.00 68 986.0
20260506224323 61 111 6.0 9.0 0.00 0.00 0.00 68 986.0
20260506223823 61 110 6.0 9.0 0.00 0.00 0.00 68 986.0
20260506223323 60 122 6.0 8.0 0.00 0.00 0.00 68 986.0
20260506222822 60 96 7.0 9.0 0.00 0.00 0.00 68 986.0
20260506222322 60 96 7.0 10.0 0.00 0.00 0.00 69 986.0
20260506221822 60 101 6.0 9.0 0.00 0.00 0.00 68 986.0
20260506221322 60 102 5.0 8.0 0.00 0.00 0.00 68 986.1
20260506220821 61 117 5.0 7.0 0.00 0.00 0.00 68 986.1
20260506220321 61 94 5.0 7.0 0.00 0.00 0.00 67 986.1
20260506215821 61 96 4.0 6.0 0.00 0.00 0.00 67 986.0
20260506215320 61 111 3.0 4.0 0.00 0.00 0.00 66 986.1
20260506214820 61 113 4.0 6.0 0.00 0.00 0.00 66 986.0
20260506214320 61 90 4.0 6.0 0.00 0.00 0.00 66 985.9
20260506213820 62 113 4.0 6.0 0.00 0.00 0.00 66 986.0
20260506213319 62 111 4.0 6.0 0.00 0.00 0.00 65 985.9
20260506212819 62 105 4.0 6.0 0.00 0.00 0.00 65 985.9
20260506211818 62 110 3.0 7.0 0.00 0.00 0.00 65 985.8
20260506211318 62 117 2.0 5.0 0.00 0.00 0.00 65 985.9
20260506210818 62 127 3.0 4.0 0.00 0.00 0.00 64 985.8
20260506210318 62 113 3.0 4.0 0.00 0.00 0.00 64 985.7
20260506205817 62 105 3.0 4.0 0.00 0.00 0.00 64 985.9
20260506205317 62 109 4.0 6.0 0.00 0.00 0.00 64 985.8
20260506204817 63 107 4.0 5.0 0.00 0.00 0.00 63 985.8
20260506204316 64 119 4.0 6.0 0.00 0.00 0.00 61 985.8
20260506203816 64 111 4.0 6.0 0.00 0.00 0.00 60 985.8
20260506203316 64 106 4.0 5.0 0.00 0.00 0.00 60 985.7
20260506202816 65 120 4.0 5.0 0.00 0.00 0.00 60 985.7
20260506202315 64 105 4.0 6.0 0.00 0.00 0.00 60 985.9
20260506201815 65 108 4.0 5.0 0.00 0.00 0.00 60 985.8
20260506201315 65 105 4.0 5.0 0.00 0.00 0.00 59 985.8
20260506200814 65 113 3.0 5.0 0.00 0.00 0.00 59 985.7
20260506200314 66 103 2.0 4.0 0.00 0.00 0.00 57 985.7
20260506195814 67 109 1.0 2.0 0.00 0.00 0.00 54 985.7
20260506195314 68 165 1.0 1.0 0.00 0.00 0.00 54 985.7
20260506194813 68 169 1.0 2.0 0.00 0.00 0.00 54 985.8
20260506194313 68 204 2.0 2.0 0.00 0.00 0.00 53 985.7
20260506193813 68 193 2.0 3.0 0.00 0.00 0.00 54 985.7
20260506193313 68 193 1.0 2.0 0.00 0.00 0.00 54 985.7
20260506192812 68 196 2.0 2.0 0.00 0.00 0.00 54 985.7
20260506192312 68 201 2.0 2.0 0.00 0.00 0.00 54 985.6
20260506191812 68 178 2.0 2.0 0.00 0.00 0.00 54 985.6
20260506191311 68 167 2.0 3.0 0.00 0.00 0.00 53 985.6
20260506190811 69 205 2.0 3.0 0.00 0.00 0.00 53 985.6
20260506190311 69 216 3.0 4.0 0.00 0.00 0.00 52 985.6
20260506185811 69 225 3.0 4.0 0.00 0.00 0.00 52 985.5
20260506185310 69 225 2.0 4.0 0.00 0.00 0.00 52 985.4
20260506184810 69 221 1.0 3.0 0.00 0.00 0.00 53 985.4
20260506184310 69 167 1.0 2.0 0.00 0.00 0.00 53 985.5
20260506183809 69 166 1.0 2.0 0.00 0.00 0.00 53 985.4
20260506183309 69 184 2.0 2.0 0.00 0.00 0.00 52 985.3
20260506182814 70 208 2.0 2.0 0.00 0.00 0.00 52 985.3
20260506182309 70 222 2.0 2.0 0.00 0.00 0.00 52 985.3
20260506181808 70 221 2.0 2.0 0.00 0.00 0.00 51 985.4
20260506181308 70 222 2.0 3.0 0.00 0.00 0.00 51 985.3
20260506180309 70 212 2.0 3.0 0.00 0.00 0.00 51 985.3
20260506175807 70 212 1.0 2.0 0.00 0.00 0.00 51 985.1
20260506175307 71 200 1.0 1.0 0.00 0.00 0.00 51 985.1
20260506174807 71 200 1.0 2.0 0.00 0.00 0.00 49 985.1
20260506174308 71 241 1.0 2.0 0.00 0.00 0.00 49 985.0
20260506173806 72 218 2.0 3.0 0.00 0.00 0.00 48 985.0
20260506173306 72 209 2.0 2.0 0.00 0.00 0.00 48 985.0
20260506172805 72 228 2.0 3.0 0.00 0.00 0.00 48 985.0
20260506172307 72 250 2.0 3.0 0.00 0.00 0.00 48 985.0
20260506171805 72 248 2.0 4.0 0.00 0.00 0.00 47 985.1
20260506171305 72 247 2.0 3.0 0.00 0.00 0.00 47 985.2
20260506170804 72 239 2.0 3.0 0.00 0.00 0.00 47 985.2
20260506170304 72 248 2.0 4.0 0.00 0.00 0.00 47 985.3
20260506165804 73 271 2.0 3.0 0.00 0.00 0.00 47 985.2
20260506164804 73 275 4.0 4.0 0.00 0.00 0.00 47 985.2
20260506164304 73 278 4.0 7.0 0.00 0.00 0.00 46 985.3
20260506163803 74 273 5.0 6.0 0.00 0.00 0.00 46 985.3
20260506162803 75 249 4.0 9.0 0.00 0.00 0.00 44 985.3
20260506162306 75 226 6.0 7.0 0.00 0.00 0.00 46 985.2
20260506161803 75 255 8.0 12.0 0.00 0.00 0.00 45 985.2
20260506161302 75 281 7.0 15.0 0.00 0.00 0.00 45 985.2
20260506160802 75 255 6.0 10.0 0.00 0.00 0.00 45 985.3
20260506155800 75 232 7.0 10.0 0.00 0.00 0.00 45 985.3
20260506155300 75 274 8.0 14.0 0.00 0.00 0.00 45 985.3
20260506154800 75 321 8.0 11.0 0.00 0.00 0.00 45 985.4
20260506152759 75 223 9.0 15.0 0.00 0.00 0.00 43 985.5
20260506152258 75 252 10.0 14.0 0.00 0.00 0.00 42 985.5
20260506151803 75 210 11.0 16.0 0.00 0.00 0.00 42 985.5
20260506151259 75 244 10.0 15.0 0.00 0.00 0.00 42 985.5
20260506150303 76 262 8.0 13.0 0.00 0.00 0.00 42 985.5
20260506145258 77 204 7.0 12.0 0.00 0.00 0.00 42 985.5
20260506142757 77 226 7.0 13.0 0.00 0.00 0.00 42 985.6
20260506142256 77 188 6.0 12.0 0.00 0.00 0.00 42 985.6
20260506141756 76 226 6.0 10.0 0.00 0.00 0.00 43 985.6
20260506140756 76 198 6.0 14.0 0.00 0.00 0.00 42 985.6
20260506140255 76 195 7.0 12.0 0.00 0.00 0.00 43 985.6
20260506135755 76 221 8.0 14.0 0.00 0.00 0.00 43 985.7
20260506133754 77 264 8.0 15.0 0.00 0.00 0.00 43 985.8
20260506133254 76 249 7.0 14.0 0.00 0.00 0.00 43 985.8
20260506132752 76 288 8.0 12.0 0.00 0.00 0.00 43 985.8
20260506132253 76 233 10.0 15.0 0.00 0.00 0.00 43 986.1
20260506131252 77 179 6.0 13.0 0.00 0.00 0.00 43 985.9
20260506130751 76 232 5.0 12.0 0.00 0.00 0.00 43 985.9
20260506130252 76 219 5.0 8.0 0.00 0.00 0.00 43 985.9
20260506125754 76 249 6.0 9.0 0.00 0.00 0.00 43 986.0
20260506124251 75 221 9.0 14.0 0.00 0.00 0.00 43 986.3
20260506123750 76 173 9.0 15.0 0.00 0.00 0.00 43 986.3
20260506123250 76 283 7.0 12.0 0.00 0.00 0.00 43 986.4
20260506122750 76 214 8.0 14.0 0.00 0.00 0.00 43 986.4
20260506122248 75 227 8.0 13.0 0.00 0.00 0.00 42 986.4
20260506121249 75 260 9.0 18.0 0.00 0.00 0.00 44 986.5
20260506120248 75 139 7.0 11.0 0.00 0.00 0.00 43 986.5
20260506114747 74 269 9.0 15.0 0.00 0.00 0.00 44 986.7
20260506114247 75 238 8.0 15.0 0.00 0.00 0.00 44 986.7
20260506113245 74 237 9.0 14.0 0.00 0.00 0.00 46 986.8
20260506112746 74 242 9.0 14.0 0.00 0.00 0.00 44 986.7
20260506111746 74 245 9.0 14.0 0.00 0.00 0.00 44 987.0
20260506111246 74 265 7.0 12.0 0.00 0.00 0.00 44 987.0
20260506105745 74 180 9.0 19.0 0.00 0.00 0.00 46 987.2
20260506104744 74 182 6.0 9.0 0.00 0.00 0.00 46 987.3
20260506103742 74 203 10.0 24.0 0.00 0.00 0.00 46 987.4
20260506103243 74 300 7.0 16.0 0.00 0.00 0.00 44 987.5
20260506102743 74 227 7.0 10.0 0.00 0.00 0.00 47 987.4
20260506102241 73 216 7.0 13.0 0.00 0.00 0.00 47 987.4
20260506101741 74 193 7.0 13.0 0.00 0.00 0.00 45 987.4
20260506101241 74 277 8.0 20.0 0.00 0.00 0.00 45 987.5
20260506100742 73 231 8.0 13.0 0.00 0.00 0.00 46 987.4
20260506100242 73 245 7.0 12.0 0.00 0.00 0.00 46 987.6
20260506095240 73 182 5.0 12.0 0.00 0.00 0.00 48 987.3
20260506094739 72 207 5.0 8.0 0.00 0.00 0.00 51 987.3
20260506094239 72 231 5.0 8.0 0.00 0.00 0.00 51 987.6
20260506093739 71 174 6.0 11.0 0.00 0.00 0.00 49 987.6
20260506093239 71 201 6.0 11.0 0.00 0.00 0.00 53 987.6
20260506092740 71 234 5.0 10.0 0.00 0.00 0.00 53 987.8
20260506092238 70 208 6.0 10.0 0.00 0.00 0.00 51 987.7
20260506091738 70 227 5.0 14.0 0.00 0.00 0.00 49 987.9
20260506091239 71 235 3.0 7.0 0.00 0.00 0.00 54 987.8
20260506090737 70 219 4.0 5.0 0.00 0.00 0.00 54 987.6
20260506090238 70 208 6.0 9.0 0.00 0.00 0.00 52 987.6
20260506085737 70 162 6.0 11.0 0.00 0.00 0.00 53 987.6
20260506085236 70 153 6.0 10.0 0.00 0.00 0.00 53 987.6
20260506084738 70 224 6.0 9.0 0.00 0.00 0.00 53 987.7
20260506084236 70 264 6.0 9.0 0.00 0.00 0.00 52 987.5
20260506083735 70 229 6.0 12.0 0.00 0.00 0.00 52 987.7
20260506083235 70 245 6.0 12.0 0.00 0.00 0.00 53 987.7
20260506082735 69 257 7.0 11.0 0.00 0.00 0.00 54 987.6
20260506082235 69 176 6.0 12.0 0.00 0.00 0.00 53 987.6
20260506081734 70 257 3.0 9.0 0.00 0.00 0.00 53 987.5
20260506080734 69 267 3.0 8.0 0.00 0.00 0.00 53 987.4
20260506080235 69 269 2.0 5.0 0.00 0.00 0.00 55 987.3
20260506073232 66 264 4.0 9.0 0.00 0.00 0.00 56 987.4
20260506072731 66 224 4.0 6.0 0.00 0.00 0.00 55 987.4
20260506072231 66 290 5.0 8.0 0.00 0.00 0.00 58 987.4
20260506071731 66 252 5.0 8.0 0.00 0.00 0.00 56 987.4
20260506070732 66 225 4.0 7.0 0.00 0.00 0.00 57 987.5
20260506070232 65 227 3.0 8.0 0.00 0.00 0.00 56 987.4
20260506062228 61 109 4.0 7.0 0.00 0.00 0.00 60 987.2
20260506061728 60 83 5.0 6.0 0.00 0.00 0.00 61 987.2
20260506061227 60 115 5.0 8.0 0.00 0.00 0.00 61 987.1
20260506060727 60 113 5.0 7.0 0.00 0.00 0.00 60 987.1
20260506060227 60 105 6.0 11.0 0.00 0.00 0.00 61 987.1
20260506051224 57 86 6.0 9.0 0.00 0.00 0.00 65 987.0
20260506050724 56 84 7.0 10.0 0.00 0.00 0.00 64 986.9
20260506050225 56 110 7.0 9.0 0.00 0.00 0.00 64 986.9
20260506044722 55 105 5.0 7.0 0.00 0.00 0.00 67 986.8
20260506044222 55 82 5.0 8.0 0.00 0.00 0.00 66 986.8
20260506043722 55 98 4.0 8.0 0.00 0.00 0.00 67 986.9
20260506043222 55 79 2.0 4.0 0.00 0.00 0.00 67 986.9
20260506042721 54 88 3.0 3.0 0.00 0.00 0.00 68 986.9
20260506042221 54 80 7.0 9.0 0.00 0.00 0.00 68 986.8
20260506041721 53 84 9.0 11.0 0.00 0.00 0.00 68 986.6
20260506041220 53 82 9.0 11.0 0.00 0.00 0.00 69 986.6
20260506040720 53 93 9.0 11.0 0.00 0.00 0.00 69 986.6
20260506040220 53 86 9.0 12.0 0.00 0.00 0.00 69 986.4
20260506035720 53 92 9.0 11.0 0.00 0.00 0.00 69 986.4
20260506035219 52 93 10.0 12.0 0.00 0.00 0.00 69 986.4
20260506034719 52 89 11.0 13.0 0.00 0.00 0.00 70 986.3
20260506034219 52 93 10.0 13.0 0.00 0.00 0.00 70 986.3
20260506033718 52 92 10.0 12.0 0.00 0.00 0.00 70 986.4
20260506033218 52 91 10.0 12.0 0.00 0.00 0.00 71 986.4
20260506032718 52 81 11.0 14.0 0.00 0.00 0.00 71 986.3
20260506032218 52 75 10.0 14.0 0.00 0.00 0.00 70 986.3
20260506031717 52 85 9.0 13.0 0.00 0.00 0.00 71 986.4
20260506031217 52 91 9.0 12.0 0.00 0.00 0.00 70 986.3
20260506030717 52 104 9.0 12.0 0.00 0.00 0.00 70 986.4
20260506030216 52 107 7.0 12.0 0.00 0.00 0.00 69 986.4
20260506025716 52 101 7.0 9.0 0.00 0.00 0.00 69 986.3
20260506025216 53 94 7.0 10.0 0.00 0.00 0.00 69 986.2
20260506024716 54 95 7.0 10.0 0.00 0.00 0.00 67 986.2
20260506024215 54 118 7.0 12.0 0.00 0.00 0.00 66 986.2